{"data":{"norad_id":55174,"epoch":"2026-09-20T00:17:51.844704Z","epoch_age_seconds":64018,"freshness":"FRESH","line1":"1 55174U 23004AL  26263.01240561 -.00000271  00000+0 -80164-3 0  9992","line2":"2 55174  87.8971   2.2168 0002113 120.4994 239.6343 13.11418347178266","mean_motion":13.11418347,"eccentricity":0.0002113,"inclination_deg":87.8971,"raan_deg":2.2168,"arg_perigee_deg":120.4994,"mean_anomaly_deg":239.6343,"bstar":-0.00080164,"rev_number":17826,"period_min":109.80477765117,"perigee_km":1216.0722891648,"apogee_km":1219.2822802815,"semimajor_km":7595.8142847231,"source":"CELESTRAK","updated_at":"2026-09-20T09:00:44.757396Z"}}